Home   Weather   Mons   Past weeks

Flag for Belgium Past Weather in Mons, Belgium — Yesterday and Last 2 Weeks

Now
46 °F

Scattered clouds.


Feels Like: 41 °F
Forecast: 32 / 51 °F
Wind: 13 mph from North

Location: Chievres

Current Time: Apr 25, 2017 at 8:39:41 pm

Latest Report: Apr 25, 2017 at 7:55 pm


Visibility: N/A

Pressure: 29.89 "Hg

Humidity: 40%

Dew Point: 23 °F

Location of MonsLocation

Past Weather in Mons — Graph

°F

Mons Temperature Yesterday

Maximum temperature yesterday: 59 °F (at 1:55 pm)
Minimum temperature yesterday: 34 °F (at 3:55 am)
Average temperature yesterday: 47 °F

High & Low Weather Summary for the Past Weeks

 TemperatureHumidityPressure
High59 °F (Apr 12, 2:25 pm)94% (Apr 15, 8:25 am)30.66 "Hg (Apr 15, 8:25 am)
Low27 °F (Apr 20, 5:25 am)28% (Apr 20, 3:25 pm)29.80 "Hg (Apr 24, 11:25 pm)
Average46 °F70%30.23 "Hg
* Reported Apr 10 7:25 pm — Apr 25 7:25 pm, Mons, Weather by CustomWeather, © 2017

Note: Actual official high and low records may vary slightly from our data, if they occured in-between our weather recording intervals... More about our weather records

Advertising

Mons Weather History for the Previous 24 Hours

Scroll right to see more
 ConditionsComfort  
Time TempWeatherWind HumidityBarometerVisibility
7:25 pm
Tue, Apr 25
46 °FPartly sunny.12 mph43%29.86 "HgN/A
6:55 pm46 °FPassing clouds.14 mph50%29.86 "HgN/A
6:25 pm48 °FPartly sunny.15 mph43%29.86 "HgN/A
5:55 pm48 °FPartly sunny.14 mph46%29.89 "HgN/A
5:25 pm50 °FScattered clouds.12 mph47%29.86 "HgN/A
4:55 pm48 °FScattered clouds.12 mph46%29.86 "HgN/A
4:25 pm48 °FPartly sunny.14 mph54%29.89 "HgN/A
3:55 pm48 °FPartly sunny.10 mph54%29.89 "HgN/A
3:25 pm48 °FPartly sunny.10 mph58%29.89 "HgN/A
2:55 pm48 °FPartly sunny.10 mph62%29.89 "HgN/A
2:25 pm45 °FOvercast.12 mph66%29.89 "HgN/A
1:55 pm46 °FScattered clouds.9 mph62%29.89 "HgN/A
1:25 pm46 °FPartly sunny.14 mph57%29.89 "HgN/A
12:55 pm45 °FBroken clouds.13 mph61%29.89 "HgN/A
12:25 pm45 °FPartly sunny.12 mph57%29.89 "HgN/A
11:55 am46 °FPartly sunny.13 mph57%29.89 "HgN/A
11:25 am45 °FPartly sunny.16 mph57%29.89 "HgN/A
10:55 am43 °FPartly sunny.16 mph61%29.89 "HgN/A
10:25 am45 °FPartly sunny.15 mph57%29.86 "HgN/A
9:55 am43 °FScattered clouds.14 mph61%29.86 "HgN/A
9:25 am43 °FQuite cool.13 mph61%29.86 "HgN/A
8:55 am41 °FQuite cool.13 mph70%29.86 "HgN/A
8:25 am39 °FPartly sunny.8 mph75%29.86 "HgN/A
7:55 am39 °FScattered clouds.9 mph75%29.86 "HgN/A
7:25 am39 °FPartly sunny.10 mph70%29.83 "HgN/A
6:55 am39 °FOvercast.7 mph75%29.83 "HgN/A
6:25 am39 °FPassing clouds.8 mph70%29.83 "HgN/A
5:55 am41 °FOvercast.13 mph66%29.83 "HgN/A
5:25 am43 °FOvercast.12 mph61%29.80 "HgN/A
4:25 am43 °FOvercast.10 mph76%29.80 "HgN/A
3:55 am45 °FMostly cloudy.8 mph87%29.80 "HgN/A
2:55 am45 °FLight rain. Overcast.6 mph87%29.80 "HgN/A
2:25 am45 °FLight rain. Overcast.7 mph87%29.80 "HgN/A
1:55 am45 °FOvercast.8 mph93%29.80 "HgN/A
1:33 am46 °FOvercast.10 mph87%29.80 "HgN/A
12:55 am48 °FLight rain. Overcast.12 mph82%29.80 "Hg4 mi
12:25 am50 °FOvercast.8 mph76%29.80 "HgN/A
11:55 pm
Mon, Apr 24
50 °FMostly cloudy.8 mph71%29.80 "HgN/A
11:25 pm50 °FOvercast.8 mph71%29.80 "HgN/A
10:55 pm50 °FPassing clouds.8 mph71%29.83 "HgN/A
9:55 pm52 °FPassing clouds.8 mph67%29.83 "HgN/A
9:25 pm52 °FPassing clouds.6 mph62%29.83 "HgN/A
8:55 pm52 °FPartly cloudy.3 mph58%29.83 "HgN/A
8:25 pm54 °FScattered clouds.5 mph54%29.86 "HgN/A
Weather by CustomWeather, © 2017

See weather overviewHow to use our weather pages